2024/02/19 00:00:00,40.6, 5.0
2024/02/19 00:10:00,40.5, 5.2
2024/02/19 00:20:00,40.4, 5.3
2024/02/19 00:30:00,40.6, 5.3
2024/02/19 00:40:00,40.3, 4.7
2024/02/19 00:50:00,39.3, 4.8
2024/02/19 01:00:00,39.3, 5.2
2024/02/19 01:10:00,39.3, 5.0
2024/02/19 01:20:00,39.3, 5.4
2024/02/19 01:30:00,39.4, 5.0
2024/02/19 01:40:00,39.5, 5.0
2024/02/19 01:50:00,39.3, 5.5
2024/02/19 02:00:00,39.3, 5.3
2024/02/19 02:10:00,39.3, 4.8
2024/02/19 02:20:00,39.2, 5.0
2024/02/19 02:30:00,39.2, 4.7
2024/02/19 02:40:00,39.3, 4.5
2024/02/19 02:50:00,39.2, 5.2
2024/02/19 03:00:00,39.2, 4.7
2024/02/19 03:10:00,39.3, 4.8
2024/02/19 03:20:00,39.3, 4.7
2024/02/19 03:30:00,39.3, 4.9
2024/02/19 03:40:00,39.2, 5.1
2024/02/19 03:50:00,39.2, 5.0
2024/02/19 04:00:00,39.3, 5.0
2024/02/19 04:10:00,39.4, 5.0
2024/02/19 04:20:00,39.4, 4.8
2024/02/19 04:30:00,39.4, 4.6
2024/02/19 04:40:00,39.3, 5.3
2024/02/19 04:50:00,39.2, 5.0
2024/02/19 05:00:00,39.2, 4.3
2024/02/19 05:10:00,39.2, 5.2
2024/02/19 05:20:00,39.3, 5.0
2024/02/19 05:30:00,39.5, 5.0
2024/02/19 05:40:00,39.6, 4.8
2024/02/19 05:50:00,39.6, 5.5
2024/02/19 06:00:00,39.6, 5.6
2024/02/19 06:10:00,40.0, 4.9
2024/02/19 06:20:00,40.3, 5.5
2024/02/19 06:30:00,40.1, 5.6
2024/02/19 06:40:00,39.5, 5.2
2024/02/19 06:50:00,38.6, 5.2
2024/02/19 07:00:00,38.3, 5.0
2024/02/19 07:10:00,38.0, 5.6
2024/02/19 07:20:00,37.5, 5.6
2024/02/19 07:30:00,36.7, 5.0
2024/02/19 07:40:00,36.0, 5.0
2024/02/19 07:50:00,35.7, 5.2
2024/02/19 08:00:00,35.5, 6.0
2024/02/19 08:10:00,35.4, 6.2
2024/02/19 08:20:00,35.6, 5.9
2024/02/19 08:30:00,35.5, 6.2
2024/02/19 08:40:00,35.1, 6.1
2024/02/19 08:50:00,34.5, 6.0
2024/02/19 09:00:00,34.5, 5.7
2024/02/19 09:10:00,34.2, 6.3
2024/02/19 09:20:00,33.9, 6.4
2024/02/19 09:30:00,33.7, 5.9
2024/02/19 09:40:00,33.5, 6.2
2024/02/19 09:50:00,33.2, 6.6
2024/02/19 10:00:00,32.6, 6.8
2024/02/19 10:10:00,32.4, 6.5
2024/02/19 10:20:00,32.4, 7.2
2024/02/19 10:30:00,32.3, 6.9
2024/02/19 10:40:00,32.1, 6.6
2024/02/19 10:50:00,31.8, 6.8
2024/02/19 11:00:00,31.4, 6.8
2024/02/19 11:10:00,31.5, 7.1
2024/02/19 11:20:00,31.1, 7.3
2024/02/19 11:30:00,30.9, 7.5
2024/02/19 11:40:00,30.7, 7.2
2024/02/19 11:50:00,30.5, 7.1
2024/02/19 12:00:00,30.3, 7.5
2024/02/19 12:10:00,30.3, 6.8
2024/02/19 12:20:00,30.3, 8.2
2024/02/19 12:30:00,---, 8.0
2024/02/19 12:40:00,---, 8.1
2024/02/19 12:50:00,38.9, 8.2
2024/02/19 13:00:00,30.2, 8.1
2024/02/19 13:10:00,30.0, 7.7
2024/02/19 13:20:00,29.5, 7.9
2024/02/19 13:30:00,29.5, 7.5
2024/02/19 13:40:00,29.6, 7.5
2024/02/19 13:50:00,29.5, 7.6
2024/02/19 14:00:00,28.7, 7.3
2024/02/19 14:10:00,28.3, 7.2
2024/02/19 14:20:00,27.8, 7.0
2024/02/19 14:30:00,27.9, 6.6
2024/02/19 14:40:00,27.7, 7.0
2024/02/19 14:50:00,27.7, 7.1
2024/02/19 15:00:00,27.6, 7.4
2024/02/19 15:10:00,27.2, 7.4
2024/02/19 15:20:00,27.1, 7.8
2024/02/19 15:30:00,26.9, 7.3
2024/02/19 15:40:00,26.4, 7.6
2024/02/19 15:50:00,26.4, 7.4
2024/02/19 16:00:00,26.8, 7.4
2024/02/19 16:10:00,26.8, 6.8
2024/02/19 16:20:00,26.1, 7.0
2024/02/19 16:30:00,26.0, 6.8
2024/02/19 16:40:00,25.9, 6.9
2024/02/19 16:50:00,25.4, 6.9
2024/02/19 17:00:00,25.2, 7.1
2024/02/19 17:10:00,25.1, 7.6
2024/02/19 17:20:00,25.4, 7.5
2024/02/19 17:30:00,25.2, 6.8
2024/02/19 17:40:00,25.1, 5.8
2024/02/19 17:50:00,25.0, 5.3
2024/02/19 18:00:00,25.0, 5.3
2024/02/19 18:10:00,24.7, 5.4
2024/02/19 18:20:00,24.6, 5.9
2024/02/19 18:30:00,24.5, 5.6
2024/02/19 18:40:00,24.4, 6.0
2024/02/19 18:50:00,24.1, 6.0
2024/02/19 19:00:00,23.9, 5.2
2024/02/19 19:10:00,24.1, 5.6
2024/02/19 19:20:00,24.1, 5.3
2024/02/19 19:30:00,24.1, 5.6
2024/02/19 19:40:00,24.0, 5.3
2024/02/19 19:50:00,23.8, 5.8
2024/02/19 20:00:00,23.8, 5.0
2024/02/19 20:10:00,23.7, 5.7
2024/02/19 20:20:00,23.7, 5.3
2024/02/19 20:30:00,23.7, 5.2
2024/02/19 20:40:00,23.7, 5.1
2024/02/19 20:50:00,23.7, 5.5
2024/02/19 21:00:00,23.6, 5.4
2024/02/19 21:10:00,22.9, 5.3
2024/02/19 21:20:00,22.9, 5.3
2024/02/19 21:30:00,22.7, 5.3
2024/02/19 21:40:00,22.7, 5.2
2024/02/19 21:50:00,22.7, 5.4
2024/02/19 22:00:00,22.7, 5.3
2024/02/19 22:10:00,22.7, 5.3
2024/02/19 22:20:00,22.6, 5.2
2024/02/19 22:30:00,22.5, 5.1
2024/02/19 22:40:00,22.5, 5.3
2024/02/19 22:50:00,22.4, 5.5
2024/02/19 23:00:00,21.9, 5.1
2024/02/19 23:10:00,21.8, 5.3
2024/02/19 23:20:00,21.8, 5.2
2024/02/19 23:30:00,21.5, 5.4
2024/02/19 23:40:00,20.8, 5.1
2024/02/19 23:50:00,20.6, 5.3
